Taloyoak, Nunavut

6:07 AM MDT on July 28, 2017 (GMT -0600)
Taloyoak

Weather History for CYYH - April, 2013

Change the Weather History Date:

Wednesday, April 24, 2013

  Actual Average Record
Temperature  
Mean Temperature -16 °F -  
Max Temperature -8 °F 16 °F 24 °F (1997)
Min Temperature -23 °F 5 °F -23 °F (2013)
Degree Days  
Heating Degree Days 80    
Moisture  
Dew Point -20 °F    
Average Humidity 80    
Maximum Humidity 91    
Minimum Humidity 58    
Precipitation  
Precipitation 0.00 in - - ()
Sea Level Pressure  
Sea Level Pressure 29.80 in    
Wind  
Wind Speed 4 mph ()    
Max Wind Speed 10 mph    
Max Gust Speed -    
Visibility 14.4 miles    
Events Snow    
Averages and records for this station are not official NWS values.
T = Trace of Precipitation, MM = Missing Value Source: Averaged Metar Reports

Daily Weather History Graph

Daily Weather History Graph

Search for Another Location

Airport or City:

Trip Planner

Search our weather history database for the weather conditions in past years. The results will help you decide how hot, cold, wet, or windy it might be!

Date:

Astronomy

Apr. 24, 2013 Rise Set
Actual Time 4:27 AM CDT 10:01 PM CDT
Civil Twilight 2:42 AM CDT 11:51 PM CDT
Nautical Twilight Sun does not set Sun does not set
Astronomical Twilight Sun does not set Sun does not set
Moon 8:45 PM CDT (4/24) 4:18 AM CDT (4/24)
Length of Visible Light 21h 08m
Length of Day
17h 34m
Waxing Gibbous, 98% of the Moon is Illuminated
Apr 24
Waxing Gibbous
Apr 25
Full
May 2
Last Quarter
May 9
New
May 17
First Quarter

Hourly Weather History & Observations

Time (CDT) Temp. Windchill Dew Point Humidity Pressure Visibility Wind Dir Wind Speed Gust Speed Precip Events Conditions
12:00 AM -13.0 °F -22.7 °F -16.6 °F 84% 29.87 in 15.0 mi South 3.5 mph - N/A   Clear
1:00 AM -17 °F - -19 °F 82% 29.87 in 15 mi SSE 5.8 mph - -  
1:00 AM -16.6 °F -31.3 °F -20.2 °F 84% 29.87 in 15.0 mi SSE 5.8 mph - N/A   Clear
2:00 AM -18.4 °F -28.9 °F -20.2 °F 91% 29.86 in 15.0 mi South 3.5 mph - N/A   Partly Cloudy
3:00 AM -18.4 °F -28.9 °F -22.0 °F 84% 29.85 in 15.0 mi SE 3.5 mph - N/A   Partly Cloudy
4:00 AM -20.2 °F - -22.0 °F 91% 29.84 in 15.0 mi Calm Calm - N/A   Clear
5:00 AM -18.4 °F - -20.2 °F 91% 29.84 in 15.0 mi Calm Calm - N/A   Partly Cloudy
6:00 AM -22.0 °F - -23.8 °F 91% 29.83 in 15.0 mi SW 2.3 mph - N/A   Partly Cloudy
7:00 AM -23 °F - -26 °F 76% 29.83 in 15 mi South 4.6 mph - - Snow Snow
7:00 AM -23.8 °F -35.0 °F -25.6 °F 91% 29.83 in 15.0 mi South 3.5 mph - N/A   Partly Cloudy
8:00 AM -22.0 °F -35.6 °F -25.6 °F 83% 29.82 in 15.0 mi South 4.6 mph - N/A   Partly Cloudy
9:00 AM -20.2 °F -35.5 °F -23.8 °F 83% 29.81 in 15.0 mi South 5.8 mph - N/A   Partly Cloudy
10:00 AM -18.4 °F -39.1 °F -23.8 °F 76% 29.81 in 10.0 mi South 10.4 mph - N/A   Partly Cloudy
11:00 AM -16.6 °F -35.7 °F -22.0 °F 76% 29.79 in 12.0 mi South 9.2 mph - N/A   Partly Cloudy
12:00 PM -14.8 °F -32.2 °F -20.2 °F 77% 29.78 in 12.0 mi South 8.1 mph - N/A   Partly Cloudy
1:00 PM -15 °F - -19 °F 69% 29.78 in 12 mi South 9.2 mph - - Snow Snow
1:00 PM -14.8 °F -33.5 °F -20.2 °F 77% 29.78 in 12.0 mi South 9.2 mph - N/A   Partly Cloudy
2:00 PM -13.0 °F -31.3 °F -18.4 °F 77% 29.78 in 15.0 mi South 9.2 mph - N/A   Partly Cloudy
3:00 PM -13.0 °F -31.3 °F -16.6 °F 84% 29.77 in 15.0 mi South 9.2 mph - N/A   Mostly Cloudy
4:00 PM -11.2 °F -29.0 °F -16.6 °F 77% 29.77 in 15.0 mi South 9.2 mph - N/A   Mostly Cloudy
5:00 PM -9.4 °F -26.8 °F -14.8 °F 77% 29.76 in 15.0 mi SSE 9.2 mph - N/A   Mostly Cloudy
6:00 PM -9.4 °F -22.7 °F -16.6 °F 71% 29.77 in 15.0 mi South 5.8 mph - N/A   Mostly Cloudy
7:00 PM -10 °F - -17 °F 58% 29.77 in 15 mi South 2.3 mph - - Snow Snow
7:00 PM -9.4 °F - -16.6 °F 71% 29.77 in 15.0 mi South 2.3 mph - N/A   Partly Cloudy
7:33 PM - - - N/A% - 15.0 mi Calm Calm - N/A   Partly Cloudy
8:00 PM -11.2 °F - -18.4 °F 70% 29.76 in 15.0 mi Calm Calm - N/A   Partly Cloudy
10:00 PM -13.0 °F -22.7 °F -18.4 °F 77% 29.76 in 15.0 mi East 3.5 mph - N/A   Scattered Clouds
11:00 PM -14.8 °F -24.8 °F -18.4 °F 84% 29.76 in 15.0 mi East 3.5 mph - N/A   Mostly Cloudy